Location: ?????????
(38.5999°N, 22.7695°E)
Time: 09:58:16
(UTC+00:00)

Cosmos 2154 Rocket - Pass Details

Date: 19 August 2024
Orbit: 964 x 997 km, 82.9° (Epoch: 07 September)

Event Time Altitude Azimuth Distance (km) Brightness Sun altitude
Rises 02:52:50 0° 350° (N) 3,667 7.2 -10.7°
Reaches altitude 10° 02:55:21 10° 348° (NNW) 2,714 6.5 -10.2°
Maximum altitude 03:01:30 68° 267° (W) 1,032 4.0 -9.1°
Drops below altitude 10° 03:07:36 10° 185° (S) 2,693 6.0 -8.0°
Sets 03:10:06 0° 183° (S) 3,637 6.7 -7.6°
